Jackpot

Texas Poker Multi Jackpot System

Kini Telah hadir Jackpot SUPER ROYAL FLUSH

Kini Telah hadir Jackpot 2000 (khusus table VIP keatas).

Ikutilah global jackpot yang tersedia di system kami, dengan system jackpot terbaru dan pertama di indonesia, anda dapat membeli jackpot dengan harga 100 rupiah saja dan menangkan hadiahnya hingga puluhan juta rupiah.

Jackpot bukanlah suatu keharusan untuk dibeli, namun kami memberikan suatu fitur tambahan untuk member tercinta dari www.maniakqq.com.

Terdapat tiga pilihan harga jackpot yang bisa anda beli yaitu :100,500,1000 dan 2000(khusus table VIP Keatas) rupiah.

Hadiah dari Multi jackpot system www.maniakqq.com

  1. full house x 10 harga jackpot yang anda beli.
      (contoh:anda membeli 1000 maka:1000 X10 = 10.000)
  2. four of kind x 250 harga jackpot yang anda beli
      (contoh:anda membeli 1000 maka:1000 X250 = 250.000)
  3. Straight flush x 1200
      (contoh:anda membeli 1000 maka:1000 X1200 = 1.200.000)
  4. Royal flush x 10000 harga jackpot yang anda beli
      (contoh:anda membeli 1000 maka:1000 X10000 = 10.000.000)
  5. SUPER ROYAL FLUSH x 30000 harga jackpot yang anda beli
      (contoh:anda membeli 1000 maka:1000 X30000 = 30.000.000)

Kondisi kartu

  1. full house adalah kondisi kartu dimana kartu anda dan kartu tengah dengan total 7 kartu bisa mendapatkan nilai 5 kartu dengan kombinasi 1 tris(three of kind) dan 1 pair, contoh 3 kartu 10 dan 2 kartu 5
  2. Four of kind adalah kondisi kartu dimana kartu anda dan kartu tengah dengan total 7 kartu bisa mendapatkan nilai 5 kartu dengan kombinasi 4 kartu yang sama jumlah dan 1 kartu apapun juga contoh anda mendapatkan 4 buah kartu angka 3 dan 1 kartu apapun.
  3. Staright flush adalah kondisi kartu dimana kartu anda dan kartu tengah dengan total 7 kartu bisa mendapatkan nilai 5 kartu dengan kombinasi seri / staright dengan kembang yang sama contoh : urutan kartu dari angka 5, 6, 7, 8 , 9 10 dengan kembang yg sama misalnya as hati
  4. Royal flush adalah kondisi kartu dimana kartu anda dan kartu tengah dengan total 7 kartu bisa mendapatkan nilai 5 kartu dengan kombinasi seri / staright dengan kembang yang sama tetapi kartu tersebut haruslah dimulai dari 10. contoh 10, Queen, Jack, King dan aces dengan kembang yang sama
  5. Super Royal flush adalah kondisi kartu dimana Kedua kartu anda digabung dengan 3 kartu pertama meja haruslah royal flush. contoh kartu anda 10,Queen kembang sama dan 3 kartu pertama meja adalah Jack, King dan aces dengan kembang yang sama

Demikian adalah penjelasan dari Multi Jackpot www.maniakqq.com terima kasih dan selamat bermain salam hoki dari kami

Texas Poker Jackpot Winner

TOP SUPER ROYAL FLUSH
No.TanggalNamaPriceWin
125/04 02:34BAYARBOSQSuper Royal flush6,000,000
225/04 02:26PUBLAISuper Royal flush15,000,000
325/04 00:29JARI8008Super Royal flush6,000,000
424/04 23:17NOKNOKNOKSuper Royal flush3,000,000
524/04 22:07HAJI_SODIQSuper Royal flush15,000,000
TOP ROYAL FLUSH
No.TanggalNamaPriceWin
125/04 11:44KRWR1YUDPVRoyal flush5,000,000
225/04 11:41SIJAWER77Royal flush1,000,000
325/04 11:38HBPRoyal flush20,000,000
425/04 11:37SUGIH_18Royal flush5,000,000
525/04 11:36DA_N1Royal flush5,000,000
TOP STRAIGHT FLUSH
No.TanggalNamaPriceWin
125/04 11:48GOMGOM16Straight Flush2,400,000
225/04 11:41AMARA490Straight Flush600,000
325/04 11:38BAC123IDN7TWStraight Flush240,000
425/04 11:38PAHPOH123Straight Flush240,000
525/04 11:35KAMBUIK88Straight Flush600,000
LATEST JACKPOT
No.TanggalNamaPriceWin
125/04 11:49MFREYAFull House10,000
225/04 11:49WCM1QUWV3QFull House5,000
325/04 11:49ANGMER99Full House5,000
425/04 11:49B1D91DEFFour Of A Kind250,000
525/04 11:49PREMAN112Full House2,000
625/04 11:49DMEE5V0XM8Full House2,000
725/04 11:49APNRIK999Full House5,000
825/04 11:49IGOR10Full House20,000
925/04 11:49GOOGESSFull House20,000
1025/04 11:49XIOMAY30Full House5,000
1125/04 11:49TEMPUR123Full House2,000
1225/04 11:49DEWAKPFull House1,000
1325/04 11:49UPS1102Full House2,000
1425/04 11:49DWTDIKI07Full House2,000
1525/04 11:49FILER26Four Of A Kind125,000
1625/04 11:49SERGIO_33Full House10,000
1725/04 11:49ERWINS99Full House2,000
1825/04 11:49ARJUN4212Full House2,000
1925/04 11:48DB88A826Full House5,000
2025/04 11:48MANGAN777Full House5,000
2125/04 11:48PLAKSUT3Full House20,000
2225/04 11:48MSALAH17Full House2,000
2325/04 11:48A7DFECE8Full House10,000
2425/04 11:48KEMPLU15Full House5,000
2525/04 11:48PSRRAUTFull House10,000
2625/04 11:48YAKIN333Full House10,000
2725/04 11:48RECOS111Full House2,000
2825/04 11:48HARAMINOFull House5,000
2925/04 11:48MF6TL17I6KFull House5,000
3025/04 11:48QUANONYETFull House2,000
3125/04 11:48GOMGOM16Straight Flush2,400,000
3225/04 11:48RONGBWFull House2,000
3325/04 11:48DURRRR111Full House5,000
3425/04 11:48ILOK07Full House5,000
3525/04 11:48SINTA_12Full House20,000
3625/04 11:48ZJX3Full House20,000
3725/04 11:48MUHARZY55Full House2,000
3825/04 11:48BENGAL_BOYFull House2,000
3925/04 11:48DECKER7CJFull House2,000
4025/04 11:48AL_90Full House2,000
4125/04 11:48MARBOR_01Full House2,000
4225/04 11:48C09T9857Full House2,000
4325/04 11:48AAAAFA90Full House5,000
4425/04 11:48JENGLOT48Full House1,000
4525/04 11:48INDRAPHE77Full House2,000
4625/04 11:48ARJUV76Full House5,000
4725/04 11:48VALIR0011Full House10,000
4825/04 11:48SCOPYMERAHFull House5,000
4925/04 11:48APNRIK999Full House5,000
5025/04 11:48KYBY4444Full House2,000

Domino Multi Jackpot System

Ikutilah global jackpot yang tersedia di system kami, dengan system jackpot terbaru dan pertama di indonesia, anda dapat membeli jackpot dengan harga 100 rupiah saja dan menangkan hadiahnya hingga puluhan juta rupiah.

Jackpot bukanlah suatu keharusan untuk dibeli, namun kami memberikan suatu fitur tambahan untuk member tercinta dari www.maniakqq.com.

Terdapat tiga pilihan harga jackpot yang bisa anda beli yaitu :100,500 dan 1000 rupiah.

Hadiah dari Multi jackpot system www.maniakqq.com

  1. Murni Kecil x 50 harga jackpot yang anda beli.
      (contoh:anda membeli 1000 maka:1000 X 50 = 50.000)
  2. Murni Besar x 50 harga jackpot yang anda beli
      (contoh:anda membeli 1000 maka:1000 X 50 = 50.000)
  3. BALAK x 100 harga jackpot yang anda beli
      (contoh:anda membeli 1000 maka:1000 X 100 = 100.000)
  4. ENAM DEWA x 6666 harga jackpot yang anda beli
      (contoh:anda membeli 1000 maka:1000 X 6666 = 6.666.000)

Demikian adalah penjelasan dari Multi Jackpot www.maniakqq.com terima kasih dan selamat bermain salam hoki dari kami

Domino Jackpot Winner

TOP ENAM DEWA
No.TanggalNamaPriceWin
125/04 11:39SER4N9_601murni enam6,666,000
225/04 11:22SEKARBELAmurni enam3,333,000
325/04 08:40L3W3N9murni enam6,666,000
425/04 06:59B5AC5220murni enam666,600
525/04 06:45ABAYOS99murni enam6,666,000
TOP BALAK
No.TanggalNamaPriceWin
125/04 11:49LIMAS93balak100,000
225/04 11:48DARKZLIUbalak100,000
325/04 11:45ZARI21balak100,000
425/04 11:44SER4N9_601balak100,000
525/04 11:42DWBTUSEI45balak100,000
LATEST JACKPOT
No.TanggalNamaPriceWin
125/04 11:49GREATWALLLmurni besar25,000
225/04 11:49LIMAS93balak100,000
325/04 11:48MEGAGmurni besar50,000
425/04 11:48DARKZLIUbalak100,000
525/04 11:47PITBULL86murni kecil50,000
625/04 11:46NAZRAI12murni kecil25,000
725/04 11:46ZOKER05454murni kecil25,000
825/04 11:45KOCAK98murni besar50,000
925/04 11:45ZARI21balak100,000
1025/04 11:45MUSAROmurni kecil50,000
1125/04 11:44SER4N9_601balak100,000
1225/04 11:42SIXDHEVIL2murni besar50,000
1325/04 11:42DWBTUSEI45balak100,000
1425/04 11:42TIMPOSU86murni kecil50,000
1525/04 11:41AND3456murni kecil25,000
1625/04 11:41KINGGG007balak100,000
1725/04 11:41LOEKMAN91balak100,000
1825/04 11:41BAYU1011murni kecil25,000
1925/04 11:41YONGBLOUDmurni kecil5,000
2025/04 11:40DIFARmurni kecil50,000
2125/04 11:40AND3456murni besar25,000
2225/04 11:39SER4N9_601murni enam6,666,000
2325/04 11:39A68NCHANZ593balak10,000
2425/04 11:39ARDHANI104murni kecil5,000
2525/04 11:38HEMM788balak100,000
2625/04 11:38HAMAD997murni besar25,000
2725/04 11:38JEBRAG03murni kecil50,000
2825/04 11:37SIBOLANGXMmurni besar50,000
2925/04 11:37SUZUKAPROmurni besar50,000
3025/04 11:37FEBI27murni kecil50,000
3125/04 11:36SUGANAN9murni besar25,000
3225/04 11:35ULTAH2murni besar50,000
3325/04 11:35DA72C476murni besar5,000
3425/04 11:35KINAY85murni kecil25,000
3525/04 11:35MEGAGmurni kecil50,000
3625/04 11:34ARISSYAHlucky992,500
3725/04 11:34SUTEMTEMmurni besar25,000
3825/04 11:34KINAY85murni besar25,000
3925/04 11:33ABOE0610murni kecil50,000
4025/04 11:31DWIFAN72murni besar5,000
4125/04 11:31MELSA_10balak50,000
4225/04 11:30Z43BU21XWDmurni besar25,000
4325/04 11:29NAL00murni kecil50,000
4425/04 11:29CITOS09murni kecil50,000
4525/04 11:29PITBULL86murni besar50,000
4625/04 11:28PITBULL86murni kecil50,000
4725/04 11:28ULTAH2balak100,000
4825/04 11:28E6FC7413murni kecil5,000
4925/04 11:28ME57murni besar50,000
5025/04 11:26AGUS711murni kecil50,000

Ceme Multi Jackpot System

Jackpot dilihat dari gabungan kartu pemain dengan kartu bandar. Bandar harus membeli jackpot sebanyak jumlah player yang sedang duduk. Sebagai contoh bila terdapat 3 pemain duduk bermain, dan bandar memutuskan untuk membeli jackpot Rp 1.000, maka pada periode tersebut bandar akan membeli jackpot sebanyak 3xRp1.000 = Rp3.000.

Jackpot bukanlah suatu keharusan untuk dibeli, namun kami memberikan suatu fitur tambahan untuk member tercinta dari www.maniakqq.com.

Terdapat tiga pilihan harga jackpot yang bisa anda beli yaitu :100,500 dan 1000 rupiah.

Hadiah dari Multi jackpot system www.maniakqq.com

  1. Murni Kecil x 50 harga jackpot yang anda beli.
      (contoh:anda membeli 1000 maka:1000 X 50 = 50.000)
  2. Murni Besar x 50 harga jackpot yang anda beli
      (contoh:anda membeli 1000 maka:1000 X 50 = 50.000)
  3. BALAK x 200 harga jackpot yang anda beli
      (contoh:anda membeli 1000 maka:1000 X 200 = 200.000)
  4. ENAM DEWA x 6666 harga jackpot yang anda beli
      (contoh:anda membeli 1000 maka:1000 X 6666 = 6.666.000)

Demikian adalah penjelasan dari Multi Jackpot www.maniakqq.com terima kasih dan selamat bermain salam hoki dari kami

Ceme Jackpot Winner

TOP ENAM DEWA
No.TanggalNamaPriceWin
125/04 11:34CEPOT5649murni enam3,333,000
225/04 11:12MIKHAYLA18murni enam3,333,000
325/04 11:09DEWA9X9murni enam6,666,000
425/04 11:08CAMEL1711murni enam6,666,000
525/04 11:02ROOOM7murni enam6,666,000
TOP BALAK
No.TanggalNamaPriceWin
125/04 11:48DARUSS99balak200,000
225/04 11:48MROSYIDbalak200,000
325/04 11:48LINLIN_09balak200,000
425/04 11:48LOBEbalak100,000
525/04 11:47PUTRABADAbalak200,000
LATEST JACKPOT
No.TanggalNamaPriceWin
125/04 11:49WLT09murni kecil50,000
225/04 11:49MENTER1234murni besar25,000
325/04 11:48DARUSS99balak200,000
425/04 11:48MROSYIDbalak200,000
525/04 11:48IDK891463murni besar25,000
625/04 11:48MADJIDImurni besar25,000
725/04 11:48NARJOmurni kecil25,000
825/04 11:48LINLIN_09balak200,000
925/04 11:48LOBEbalak100,000
1025/04 11:47VANDERGUNmurni kecil25,000
1125/04 11:47GREENDFLUSmurni kecil50,000
1225/04 11:47PROBENKmurni kecil25,000
1325/04 11:47ADI5729murni kecil50,000
1425/04 11:47ZHAFIRAH25murni kecil50,000
1525/04 11:47STRYEZZ1murni kecil50,000
1625/04 11:47PUTRABADAbalak200,000
1725/04 11:47A5TQK9FRMNbalak20,000
1825/04 11:47HAJIWINGKImurni kecil50,000
1925/04 11:47KOKOKAKALmurni besar50,000
2025/04 11:46LANDJAVAbalak200,000
2125/04 11:46AGSC899999balak200,000
2225/04 11:46SAMPIUK123murni besar50,000
2325/04 11:46SOWGOmurni besar25,000
2425/04 11:46JP_MCQUEENmurni kecil25,000
2525/04 11:46LAMBAT55murni kecil5,000
2625/04 11:46ATRIZALmurni kecil50,000
2725/04 11:46PAT0408balak200,000
2825/04 11:46AZMI0513balak100,000
2925/04 11:46SANSIRROmurni kecil50,000
3025/04 11:46BERCAAAAmurni kecil50,000
3125/04 11:46ADIUGEMEbalak100,000
3225/04 11:46SALM0N_balak20,000
3325/04 11:46B40ADEWA23341balak20,000
3425/04 11:46BONYET05murni besar5,000
3525/04 11:45ADHEJANUARmurni kecil50,000
3625/04 11:45KC3AVGYYT4murni kecil25,000
3725/04 11:45IGON13murni kecil50,000
3825/04 11:45KTGSMR99murni kecil50,000
3925/04 11:45JHO22balak100,000
4025/04 11:45WIN343balak200,000
4125/04 11:45ALMIRA1897murni kecil50,000
4225/04 11:45EDITH555murni kecil50,000
4325/04 11:45TABIAT99balak100,000
4425/04 11:45IGON13murni kecil50,000
4525/04 11:45KTGSMR99murni kecil50,000
4625/04 11:45JCQCUKQHPSbalak200,000
4725/04 11:45HRP561978murni kecil50,000
4825/04 11:45MYSTER003murni kecil50,000
4925/04 11:44B6H6FREDTZmurni besar25,000
5025/04 11:44ADET47balak200,000